This is the latest recevied weather packets stored in our database for station/object KC1OEK-13. If no packets are shown the sender has not sent any weather packets the latest 10 day(s).
| Time | Temp. | Humidity | Pressure | Rain* | Wind** | Luminosity | Snow |
|---|---|---|---|---|---|---|---|
| 1788018185 | 23.33° C | 46% | 1026 hPa | 0 mm | - | 655 W/m² | - |
| 1788017881 | 22.78° C | 47% | 1025.9 hPa | 0 mm | - | 650 W/m² | - |
| 1788017577 | 22.78° C | 50% | 1026 hPa | 0 mm | - | 644 W/m² | - |
| 1788017274 | 22.78° C | 52% | 1026.1 hPa | 0 mm | - | 637 W/m² | - |
| 1788016970 | 22.22° C | 49% | 1026.2 hPa | 0 mm | - | 631 W/m² | - |
| 1788016668 | 22.22° C | 50% | 1025.7 hPa | 0 mm | - | 623 W/m² | - |
| 1788016367 | 22.22° C | 51% | 1026.1 hPa | 0 mm | - | 615 W/m² | - |
| 1788016061 | 22.22° C | 52% | 1026 hPa | 0 mm | - | 607 W/m² | - |
| 1788015760 | 22.22° C | 51% | 1026.2 hPa | 0 mm | - | 598 W/m² | - |
| 1788015456 | 22.22° C | 51% | 1026.2 hPa | 0 mm | - | 590 W/m² | - |
| 1788015151 | 22.22° C | 51% | 1026.2 hPa | 0 mm | - | 581 W/m² | - |
| 1788014849 | 21.67° C | 50% | 1026.2 hPa | 0 mm | - | 571 W/m² | - |
| 1788014543 | 21.67° C | 50% | 1026.3 hPa | 0 mm | - | 562 W/m² | - |
| 1788014238 | 21.67° C | 48% | 1026.4 hPa | 0 mm | - | 554 W/m² | - |
| 1788013933 | 21.67° C | 48% | 1026.1 hPa | 0 mm | - | 543 W/m² | - |
| 1788013627 | 21.67° C | 48% | 1026.1 hPa | 0 mm | - | 530 W/m² | - |
| 1788013322 | 21.67° C | 48% | 1026 hPa | 0 mm | - | 522 W/m² | - |
| 1788013021 | 21.67° C | 51% | 1026 hPa | 0 mm | - | 508 W/m² | - |
| 1788012715 | 21.11° C | 51% | 1026.1 hPa | 0 mm | - | 497 W/m² | - |
| 1788012411 | 21.67° C | 50% | 1026 hPa | 0 mm | - | 485 W/m² | - |
| 1788012104 | 21.11° C | 54% | 1026 hPa | 0 mm | - | 473 W/m² | - |
| 1788011799 | 21.11° C | 56% | 1025.8 hPa | 0 mm | - | 461 W/m² | - |
| 1788011497 | 20.56° C | 60% | 1025.9 hPa | 0 mm | - | 449 W/m² | - |
| 1788011193 | 20.56° C | 61% | 1026 hPa | 0 mm | - | 437 W/m² | - |
| 1788010887 | 20° C | 63% | 1026.1 hPa | 0 mm | - | 424 W/m² | - |
* Rain latest hour (hover to see other rain measurements)
** Current wind speed in m/s (hover to see current wind gust speed)